Weather History for Elko, NV

Change the Weather History Date:

Thursday, December 27, 2012

  Actual Average Record
Temperature  
Mean Temperature 21 °F 25 °F  
Max Temperature 30 °F 36 °F 56 °F (1917)
Min Temperature 11 °F 14 °F -25 °F (1924)
Degree Days  
Heating Degree Days 44 40  
Month to date heating degree days 903 1049  
Since 1 July heating degree days 2221 2787  
Cooling Degree Days 0 0  
Month to date cooling degree days 0 0  
Year to date cooling degree days 682 383  
Moisture  
Dew Point 20 °F    
Average Humidity 80    
Maximum Humidity 92    
Minimum Humidity 68    
Precipitation  
Precipitation 0.02 in 0.04 in 1.02 in (1891)
Month to date precipitation 2.04 1.03  
Year to date precipitation 7.68 9.74  
Snow  
Snow 0.30 in 0.30 in 4.00 in (1936)
Month to date snowfall 20.3 8.4  
Since 1 July snowfall 22.1 14.1  
Snow Depth 11.00 in    
Sea Level Pressure  
Sea Level Pressure 30.02 in    
Wind  
Wind Speed 6 mph (SW)    
Max Wind Speed 14 mph    
Max Gust Speed 17 mph    
Visibility 8 miles    
Events Snow    
T = Trace of Precipitation, MM = Missing Value Source: NWS Daily Summary

Daily Weather History Graph

Daily Weather History Graph

Search for Another Location

Airport:

Trip Planner

Search our weather history database for the weather conditions in past years. The results will help you decide how hot, cold, wet, or windy it might be!

Date:

Astronomy

Dec. 27, 2012 Rise Set
Actual Time 7:06 AM PST 4:22 PM PST
Civil Twilight 6:35 AM PST 4:53 PM PST
Nautical Twilight 6:01 AM PST 5:28 PM PST
Astronomical Twilight 5:27 AM PST 6:01 PM PST
Moon 4:09 PM PST (12/27) 6:20 AM PST (12/27)
Length of Visible Light 10h 17m
Length of Day
9h 15m
Full, 100% of the Moon is Illuminated
Dec 27
Full
Dec 28
Full
Jan 4
Last Quarter
Jan 11
New
Jan 18
First Quarter

Hourly Weather History & Observations

Time (PST) Temp. Windchill Dew Point Humidity Pressure Visibility Wind Dir Wind Speed Gust Speed Precip Events Conditions
1:36 AM 26.6 °F 21.2 °F 24.8 °F 93% 29.82 in 1.8 mi SW 4.6 mph - 0.00 in Snow Light Snow
1:45 AM 26.6 °F 20.0 °F 24.8 °F 93% 29.83 in 2.5 mi SW 5.8 mph - 0.00 in Snow Light Snow
1:56 AM 26.1 °F 19.4 °F 25.0 °F 96% 29.90 in 3.0 mi SW 5.8 mph - 0.01 in Snow Light Snow
2:22 AM 26.6 °F 19.1 °F 24.8 °F 93% 29.83 in 3.0 mi SW 6.9 mph - 0.00 in Snow Light Snow
2:56 AM 26.1 °F 18.4 °F 24.1 °F 92% 29.91 in 6.0 mi SW 6.9 mph - 0.00 in Snow Light Snow
4:56 AM 26.1 °F 17.6 °F 23.0 °F 88% 29.92 in 10.0 mi SSW 8.1 mph - N/A   Overcast
5:56 AM 25.0 °F 16.3 °F 23.0 °F 92% 29.95 in 10.0 mi SSW 8.1 mph - N/A   Overcast
6:56 AM 25.0 °F 14.8 °F 21.9 °F 88% 29.97 in 3.0 mi SW 10.4 mph - 0.00 in Snow Light Snow
7:05 AM 24.8 °F 16.1 °F 21.2 °F 86% 29.89 in 2.5 mi SW 8.1 mph - 0.00 in Snow Light Snow
7:24 AM 24.8 °F 16.1 °F 21.2 °F 86% 29.90 in 1.8 mi SW 8.1 mph - 0.00 in Snow Light Snow
7:39 AM 24.8 °F 16.1 °F 23.0 °F 93% 29.90 in 5.0 mi SSW 8.1 mph - 0.00 in Snow Light Snow
7:56 AM 25.0 °F 17.1 °F 23.0 °F 92% 29.99 in 6.0 mi SSW 6.9 mph - 0.00 in Snow Light Snow
8:56 AM 26.1 °F 20.5 °F 24.1 °F 92% 30.01 in 10.0 mi SW 4.6 mph - 0.00 in   Overcast
9:56 AM 26.1 °F 17.6 °F 23.0 °F 88% 30.04 in 10.0 mi SW 8.1 mph - N/A   Overcast
10:56 AM 28.9 °F 20.4 °F 23.0 °F 78% 30.02 in 10.0 mi WSW 9.2 mph - N/A   Overcast
12:56 PM 28.9 °F 19.2 °F 19.9 °F 69% 30.03 in 10.0 mi NNW 11.5 mph - N/A   Overcast
1:56 PM 28.9 °F 22.8 °F 19.9 °F 69% 30.04 in 10.0 mi WNW 5.8 mph - N/A   Overcast
2:56 PM 28.9 °F 18.6 °F 19.0 °F 67% 30.06 in 10.0 mi NW 12.7 mph - N/A   Overcast
3:56 PM 27.0 °F 19.5 °F 18.0 °F 69% 30.09 in 10.0 mi WNW 6.9 mph - N/A   Overcast
4:56 PM 25.0 °F - 16.0 °F 69% 30.12 in 10.0 mi Calm Calm - N/A   Scattered Clouds
6:56 PM 12.9 °F - 8.1 °F 81% 30.20 in 10.0 mi Calm Calm - N/A   Clear
7:56 PM 14.0 °F - 10.0 °F 84% 30.21 in 10.0 mi Calm Calm - N/A   Overcast
8:56 PM 18.0 °F - 12.0 °F 78% 30.21 in 10.0 mi Calm Calm - N/A   Overcast
9:56 PM 21.0 °F 13.4 °F 15.1 °F 78% 30.21 in 10.0 mi South 5.8 mph - N/A   Overcast
10:56 PM 21.9 °F 15.7 °F 15.1 °F 75% 30.22 in 10.0 mi South 4.6 mph - N/A   Overcast
11:56 PM 21.9 °F 17.2 °F 16.0 °F 78% 30.22 in 10.0 mi SSW 3.5 mph - N/A   Overcast